SCP
0 0 0 0 0 0 0 0 0 0 0 0 0 0 -0 -0 -0 -0 -0 -0 -0 -0 0 0 0 0 0 0 0 0 0 0 0 0 0 0 -0 -0 0 0 0 0 0
0 0 0 0 0 0 0 0 0 0 0 0 0 0 0 0 -0 -0 -0 -0 -0 -0 -0 -0 -0 0 0 0 0 0 0 0 0 0 0 0 0 0 -0 0 0 0 0
0 0 0 0 0 0 0 0 0 0 0 0 0 0 0 -0 -0 -0 -0 -0 -0 -0 -0 -0 -0 -0 -0 0 0 0 0 0 0 0 0 0 0 -0 0 0 0 0 0
0 0 0 0 0 0 0 0 0 0 0 0 0 0 -0 -0 -0 -0 -0 -0 0 0 0 0 0 0 -0 -0 0 0 0 0 0 0 0 -0 0 -0 -0 -0 -0 0 0
0 0 0 0 0 0 0 0 0 0 0 0 0 0 0 -0 -0 0 0 0 0 0 0 0 0 0 0 0 0 0 0 0 0 0 0 0 -0 0 0 -0 -0 -0 -0
0 0 0 0 0 0 0 0 0 0 0 0 0 0 0 0 0 0 0 0 0 0 0 0 0 0 0 0 0 0 0 0 0 0 0 0 0 0 0 0 0 -0 -0
0 0 0 0 0 0 0 0 0 0 0 0 0 0 0 0 0 0 0 0 0 0 0 0 0 0 0 0 0 0 0 0 0 0 0 0 0 0 0 0 0 0 0
0 0 0 0 0 0 0 0 0 0 0 0 0 0 0 0 0 0 0 0 0 0 0 0 0 0 0 0 0 0 0 0 0 0 0 0 0 0 0 0 0 0 0
0 0 0 0 0 0 0 0 0 0 0 0 0 0 0 0 0 0 0 0 0 0 0 0 0 0 0 0 0 0 0 0 0 0 0 0 0 0 0 0 0 0 0
0 0 0 0 0 0 0 0 0 0 0 0 0 0 0 0 0 0 0 0 0 0 0 0 0 0 0 0 0 0 0 0 0 0 0 0 0 0 0 0 0 0 0
0 0 0 0 0 0 0 0 0 0 0 0 0 0 0 0 0 -0 0 0 0 0 0 0 0 0 -0 0 0 0 0 0 0 0 0 0 0 0 0 0 0 0 0
0 0 0 0 0 0 0 0 0 0 0 0 0 0 0 0 0 0 -0 -0 -0 0 0 0 0 0 0 0 0 0 0 0 0 0 0 0 0 0 0 0 0 0 0
0 0 0 0 0 0 0 0 0 0 0 0 0 0 0 0 0 -0 -0 -0 -0 0 0 0 -0 -0 -0 0 0 0 0 0 0 0 0 0 0 0 0 0 0 0 0
0 0 0 0 0 0 0 0 0 0 0 0 0 0 0 0 0 0 0 0 0 0 0 0 0 0 0 0 0 0 0 0 0 0 0 0 0 0 0 0 0 0 0
0 0 0 0 0 0 0 0 0 0 0 0 0 0 0 0 0 -0 -0 -0 -0 0 0 0 0 0 0 0 0 0 0 0 0 0 0 0 0 0 0 0 0 0 0
0 0 0 0 0 0 0 0 0 0 0 0 0 0 0 0 -0 -0 -0 -0 0 0 0 0 0 0 0 0 0 0 0 0 0 0 0 0 0 0 0 0 0 0 0
0 0 0 0 0 0 0 0 0 0 0 0 0 0 0 0 0 -0 0 0 0 0 0 0 0 0 0 0 0 0 0 0 0 0 0 0 0 0 0 0 0 0 0
0 0 0 0 0 0 0 0 0 0 0 0 0 0 0 0 0 0 0 0 0 0 0 0 0 0 0 0 0 0 0 0 0 0 0 0 0 0 0 0 0 0 0
0 0 0 0 0 0 0 0 0 0 0 0 0 0 0 0 0 0 0 0 0 0 0 0 0 0 0 0 0 0 0 0 0 0 0 0 0 0 0 0 0 0 0
0 0 0 0 0 0 0 0 0 0 0 0 0 0 0 0 0 0 0 0 0 0 0 0 0 0 0 0 0 0 0 0 0 0 0 0 0 0 0 0 0 0 0
0 0 0 0 0 0 0 0 0 0 0 0 0 -0 0 0 0 0 0 0 0 0 0 0 0 0 0 0 0 0 0 0 0 0 0 0 0 0 0 0 0 0 0
0 0 0 0 0 0 0 0 0 0 0 -0 -0 -0 0 0 0 0 0 0 0 0 0 0 0 0 0 0 0 0 0 0 0 0 0 0 0 0 0 0 0 0 0
0 0 0 0 0 0 0 0 0 0 -0 -0 -0 0 0 0 0 0 0 0 0 0 0 0 0 0 0 0 0 0 0 0 0 0 0 0 0 0 0 0 0 0 0
0 0 0 0 0 0 0 0 0 -0 -0 -0 -0 -0 0 0 0 0 0 0 0 0 0 0 0 0 0 0 0 0 0 0 0 0 0 0 0 0 0 0 0 0 0
0 0 0 0 0 0 0 0 -0 -0 -0 -0 -0 -0 -0 -0 0 0 0 0 0 0 0 0 0 0 0 0 0 0 0 0 -0 0 0 0 0 0 0 0 0 0 0
0 0 0 0 0 0 0 0 -0 -0 -0 -0 -0 -0 -0 0 0 0 0 0 0 0 0 0 0 0 0 0 0 0 0 0 0 0 0 0 0 0 0 0 -0 0 0
Wind_Speed_500mb
1 6 11 16 21 25 28 32 35 37 38 41 45 50 55 61 67 71 71 73 74 75 73 71 71 67 68 65 63 61 62 62 75 87 79 74 74 74 70 66 63 64 68
8 11 15 19 24 28 33 37 41 42 44 49 54 61 66 71 75 79 81 82 87 89 87 85 83 79 78 74 72 74 74 72 77 87 87 85 80 75 76 74 69 67 67
16 19 20 24 29 35 39 42 46 47 49 55 62 68 73 79 84 87 91 92 92 89 89 92 91 88 89 86 82 81 83 82 83 89 96 89 91 86 80 80 78 74 70
25 27 29 33 38 41 45 48 51 52 58 64 69 74 81 85 85 84 85 86 87 89 90 91 93 94 91 86 85 85 84 85 86 91 96 88 89 92 88 86 88 80 78
33 37 38 39 41 45 49 53 55 58 65 68 72 77 80 81 81 83 85 87 90 93 93 93 92 89 82 64 66 75 76 77 77 74 76 68 65 74 85 85 87 85 86
42 45 45 40 44 52 55 58 58 65 70 73 78 82 82 79 79 81 84 85 86 88 92 91 89 87 87 69 63 61 65 71 74 73 77 75 75 59 62 73 85 79 81
51 52 47 45 50 56 61 61 64 70 72 76 79 81 81 80 82 82 83 82 82 82 82 82 81 74 73 73 74 67 71 72 69 75 87 94 83 72 66 73 75 80 92
58 51 49 51 57 61 64 62 67 70 72 75 79 79 80 78 79 81 79 76 77 75 73 72 71 71 63 57 60 64 65 66 65 65 74 86 83 81 72 78 85 87 101
56 54 55 56 59 64 64 64 67 70 73 76 78 79 79 78 75 76 75 72 74 74 71 67 64 65 60 53 57 65 70 71 63 58 63 68 71 74 74 82 92 84 91
60 60 60 59 61 62 62 66 68 70 72 74 77 77 76 76 70 70 67 64 70 71 68 71 70 60 56 56 62 70 78 77 76 73 69 69 71 75 68 72 78 86 95
63 62 60 59 61 59 65 67 68 68 70 73 77 77 75 69 72 68 59 57 64 71 74 73 73 69 61 59 59 65 73 69 75 81 84 75 65 71 75 72 73 86 89
62 59 57 58 61 66 66 66 65 65 68 71 74 76 72 69 65 63 54 52 55 65 77 82 83 74 70 72 74 79 76 74 78 84 92 94 89 89 87 86 83 79 78
60 57 57 62 58 59 63 63 62 59 62 68 71 72 73 69 69 65 61 62 63 66 70 72 71 72 69 68 68 70 71 73 80 84 86 88 88 91 91 90 89 88 87
59 60 62 63 59 58 60 58 58 55 58 63 65 66 69 69 65 61 70 74 73 74 79 75 70 70 74 71 62 62 65 69 73 83 88 92 91 89 88 84 82 82 80
62 62 62 60 57 60 58 55 54 51 54 59 57 56 58 60 56 54 59 65 68 67 68 72 65 60 58 55 54 55 53 55 60 68 77 86 88 82 79 78 79 81 83
62 62 58 56 56 57 57 56 44 48 49 48 44 38 45 44 44 50 54 54 58 60 58 59 58 55 55 56 57 57 55 56 56 59 65 71 78 79 81 80 79 81 87
61 57 54 56 58 58 56 56 60 45 42 45 40 39 42 38 42 43 48 50 54 51 50 51 51 52 54 55 56 58 61 60 58 68 68 62 63 66 65 76 84 83 79
53 51 55 56 55 55 55 54 53 54 54 39 40 38 38 42 39 38 44 48 48 47 51 53 55 56 57 58 58 58 60 61 57 63 61 58 51 52 59 68 72 73 61
52 53 54 55 52 53 53 52 50 47 46 45 37 36 33 37 34 35 38 42 47 48 50 52 53 56 58 60 60 59 59 61 60 59 59 51 47 49 57 60 65 60 50
54 55 55 54 52 52 51 50 45 43 41 39 36 38 38 40 34 36 37 39 43 46 49 50 52 54 57 60 63 63 62 61 61 58 53 50 50 49 54 59 59 51 48
56 56 54 55 52 49 46 43 41 39 38 36 32 32 34 37 38 39 40 40 42 44 48 49 49 52 55 57 62 65 66 65 62 59 57 50 45 44 44 47 46 46 47
57 55 53 52 48 45 41 39 38 37 35 36 32 29 33 32 34 37 38 39 39 41 44 47 48 48 49 52 56 60 64 69 67 61 57 51 46 43 37 31 26 25 25
52 50 48 46 43 40 39 38 38 37 35 35 36 35 34 34 36 38 40 41 41 42 42 44 46 46 45 46 48 50 58 67 71 57 52 47 42 39 35 30 23 18 16
46 44 44 42 41 41 41 40 39 38 38 38 38 40 41 41 42 41 42 41 41 41 41 42 42 44 45 43 44 47 48 57 61 51 43 40 37 32 28 25 21 16 12
39 38 39 39 39 40 40 40 39 39 39 39 39 41 39 40 39 39 40 39 39 40 39 38 39 39 40 40 39 43 43 50 53 48 42 35 32 28 25 22 18 15 12
32 34 37 38 39 38 38 38 37 35 35 35 36 37 38 38 38 39 39 38 38 36 36 36 35 35 35 36 35 38 40 43 46 43 41 37 32 29 26 23 21 18 16
Wind_Direction_500mb
325 332 341 342 344 341 337 336 336 336 332 331 332 331 330 328 325 323 320 317 313 310 307 303 300 298 293 290 288 287 287 288 287 289 292 292 292 295 296 292 285 276 271
276 303 317 322 323 325 325 328 329 327 327 327 327 326 324 323 321 319 316 314 311 310 308 305 302 300 295 292 288 286 284 282 284 287 288 290 289 288 291 293 292 287 279
272 286 298 308 314 318 320 320 321 320 321 322 321 321 320 319 318 316 314 313 312 310 308 306 305 303 299 297 293 288 285 284 282 285 287 285 287 289 288 287 288 288 287
268 279 292 301 306 309 313 315 316 317 319 319 319 319 319 317 316 315 312 310 308 306 304 302 301 300 300 298 294 292 288 285 284 284 284 288 286 286 288 288 288 287 286
275 280 284 291 300 307 310 312 312 314 315 316 316 316 316 316 316 314 312 310 308 305 302 299 296 293 289 287 287 287 288 287 287 288 286 289 287 287 284 288 288 291 287
268 270 271 279 297 303 306 308 308 312 314 316 318 318 318 318 317 315 313 311 308 306 305 303 301 297 293 288 281 277 275 279 280 281 281 280 281 283 285 286 284 285 285
269 267 268 276 288 295 302 303 307 311 312 315 316 318 318 319 319 318 316 312 310 310 308 307 305 302 300 295 289 283 274 267 267 272 274 273 278 276 280 275 277 279 277
270 265 268 275 282 290 296 298 304 307 311 315 317 318 317 320 320 319 316 313 311 311 310 308 306 305 305 302 301 296 292 289 287 281 277 282 279 280 277 271 271 271 269
264 261 263 270 279 288 290 296 304 309 313 316 317 317 318 321 321 319 317 316 313 313 313 313 315 312 305 299 298 298 295 292 289 282 277 277 276 275 273 274 271 271 268
259 258 263 271 280 285 291 299 306 310 312 315 316 318 320 322 322 320 317 316 314 315 321 320 316 306 303 297 293 293 294 296 299 301 298 297 296 292 283 267 266 268 263
257 260 267 277 283 288 295 299 305 309 313 316 316 317 318 323 324 323 322 314 315 318 312 308 310 310 300 296 292 290 289 297 296 293 293 293 290 287 287 280 285 264 266
260 266 274 280 287 293 292 299 303 309 312 313 314 315 320 324 327 329 325 315 313 310 310 311 310 308 301 296 293 291 290 289 287 284 284 285 286 289 292 292 287 265 256
266 271 277 284 289 289 294 298 302 309 311 311 313 316 321 327 333 335 335 330 318 313 311 310 306 303 300 298 298 296 292 286 287 288 287 286 288 291 293 290 286 281 275
271 276 282 288 286 287 292 298 303 308 309 310 313 321 326 329 329 335 337 327 319 318 323 316 305 298 294 298 296 295 291 288 284 284 282 285 287 286 285 283 279 279 276
274 279 284 285 285 288 294 300 303 307 309 312 318 318 316 318 329 327 321 324 322 315 307 305 314 317 316 315 314 317 312 305 298 295 292 292 289 288 284 283 278 278 272
277 284 285 286 288 292 295 298 300 306 307 307 308 304 308 311 320 322 324 326 319 323 323 321 321 322 323 324 323 323 324 323 319 313 305 289 281 281 284 286 282 274 267
281 283 284 287 290 293 297 300 305 304 301 302 304 308 313 316 321 325 325 330 336 336 336 338 337 336 334 332 331 329 327 329 326 324 317 306 290 289 289 289 290 284 278
280 279 279 282 288 291 295 298 301 305 306 304 303 313 317 319 327 327 333 333 332 346 353 354 350 347 344 339 336 334 333 334 333 332 325 308 297 287 288 293 300 308 273
278 279 282 285 287 289 292 294 297 298 300 304 305 303 312 313 325 335 333 336 342 347 351 354 354 353 351 347 344 341 339 340 339 336 337 323 307 295 288 296 306 310 312
281 282 281 283 285 287 287 289 291 292 295 300 307 308 316 316 336 335 338 342 344 346 347 348 351 351 350 351 351 349 345 344 340 338 336 333 332 315 302 297 295 297 297
280 279 281 281 284 282 282 283 284 287 292 297 304 307 313 317 325 328 333 339 341 342 342 344 347 348 348 350 351 351 353 349 343 339 337 334 331 322 314 309 303 304 300
279 280 281 281 278 278 277 278 282 286 291 295 299 303 304 309 313 316 323 327 332 334 334 336 340 345 348 351 350 351 355 354 347 341 337 335 334 332 327 319 310 304 301
282 282 279 276 274 272 272 274 277 283 287 292 297 301 301 305 308 311 315 319 323 326 326 329 332 337 343 348 352 352 355 356 348 340 337 338 339 339 339 338 337 337 331
286 282 278 274 272 273 273 273 274 278 283 287 291 296 299 304 306 310 313 316 320 323 325 326 329 333 336 341 348 352 353 360 349 348 344 343 345 347 350 354 359 0 352
284 280 278 278 276 274 273 274 276 278 282 286 291 294 299 303 307 310 311 316 320 324 327 329 330 332 337 340 341 348 351 3 354 357 359 358 359 2 6 11 19 27 36
284 282 282 280 279 277 276 276 277 279 283 286 289 293 299 303 309 311 313 316 319 323 327 331 334 336 337 340 342 349 355 7 354 6 9 14 18 24 27 32 37 46 51
Wind_Speed_850mb
1 6 11 16 21 25 28 32 35 37 38 41 45 50 55 61 67 71 71 73 74 75 73 71 71 67 68 65 63 61 62 62 75 87 79 74 74 74 70 66 63 64 68
8 11 15 19 24 28 33 37 41 42 44 49 54 61 66 71 75 79 81 82 87 89 87 85 83 79 78 74 72 74 74 72 77 87 87 85 80 75 76 74 69 67 67
16 19 20 24 29 35 39 42 46 47 49 55 62 68 73 79 84 87 91 92 92 89 89 92 91 88 89 86 82 81 83 82 83 89 96 89 91 86 80 80 78 74 70
25 27 29 33 38 41 45 48 51 52 58 64 69 74 81 85 85 84 85 86 87 89 90 91 93 94 91 86 85 85 84 85 86 91 96 88 89 92 88 86 88 80 78
33 37 38 39 41 45 49 53 55 58 65 68 72 77 80 81 81 83 85 87 90 93 93 93 92 89 82 64 66 75 76 77 77 74 76 68 65 74 85 85 87 85 86
42 45 45 40 44 52 55 58 58 65 70 73 78 82 82 79 79 81 84 85 86 88 92 91 89 87 87 69 63 61 65 71 74 73 77 75 75 59 62 73 85 79 81
51 52 47 45 50 56 61 61 64 70 72 76 79 81 81 80 82 82 83 82 82 82 82 82 81 74 73 73 74 67 71 72 69 75 87 94 83 72 66 73 75 80 92
58 51 49 51 57 61 64 62 67 70 72 75 79 79 80 78 79 81 79 76 77 75 73 72 71 71 63 57 60 64 65 66 65 65 74 86 83 81 72 78 85 87 101
56 54 55 56 59 64 64 64 67 70 73 76 78 79 79 78 75 76 75 72 74 74 71 67 64 65 60 53 57 65 70 71 63 58 63 68 71 74 74 82 92 84 91
60 60 60 59 61 62 62 66 68 70 72 74 77 77 76 76 70 70 67 64 70 71 68 71 70 60 56 56 62 70 78 77 76 73 69 69 71 75 68 72 78 86 95
63 62 60 59 61 59 65 67 68 68 70 73 77 77 75 69 72 68 59 57 64 71 74 73 73 69 61 59 59 65 73 69 75 81 84 75 65 71 75 72 73 86 89
62 59 57 58 61 66 66 66 65 65 68 71 74 76 72 69 65 63 54 52 55 65 77 82 83 74 70 72 74 79 76 74 78 84 92 94 89 89 87 86 83 79 78
60 57 57 62 58 59 63 63 62 59 62 68 71 72 73 69 69 65 61 62 63 66 70 72 71 72 69 68 68 70 71 73 80 84 86 88 88 91 91 90 89 88 87
59 60 62 63 59 58 60 58 58 55 58 63 65 66 69 69 65 61 70 74 73 74 79 75 70 70 74 71 62 62 65 69 73 83 88 92 91 89 88 84 82 82 80
62 62 62 60 57 60 58 55 54 51 54 59 57 56 58 60 56 54 59 65 68 67 68 72 65 60 58 55 54 55 53 55 60 68 77 86 88 82 79 78 79 81 83
62 62 58 56 56 57 57 56 44 48 49 48 44 38 45 44 44 50 54 54 58 60 58 59 58 55 55 56 57 57 55 56 56 59 65 71 78 79 81 80 79 81 87
61 57 54 56 58 58 56 56 60 45 42 45 40 39 42 38 42 43 48 50 54 51 50 51 51 52 54 55 56 58 61 60 58 68 68 62 63 66 65 76 84 83 79
53 51 55 56 55 55 55 54 53 54 54 39 40 38 38 42 39 38 44 48 48 47 51 53 55 56 57 58 58 58 60 61 57 63 61 58 51 52 59 68 72 73 61
52 53 54 55 52 53 53 52 50 47 46 45 37 36 33 37 34 35 38 42 47 48 50 52 53 56 58 60 60 59 59 61 60 59 59 51 47 49 57 60 65 60 50
54 55 55 54 52 52 51 50 45 43 41 39 36 38 38 40 34 36 37 39 43 46 49 50 52 54 57 60 63 63 62 61 61 58 53 50 50 49 54 59 59 51 48
56 56 54 55 52 49 46 43 41 39 38 36 32 32 34 37 38 39 40 40 42 44 48 49 49 52 55 57 62 65 66 65 62 59 57 50 45 44 44 47 46 46 47
57 55 53 52 48 45 41 39 38 37 35 36 32 29 33 32 34 37 38 39 39 41 44 47 48 48 49 52 56 60 64 69 67 61 57 51 46 43 37 31 26 25 25
52 50 48 46 43 40 39 38 38 37 35 35 36 35 34 34 36 38 40 41 41 42 42 44 46 46 45 46 48 50 58 67 71 57 52 47 42 39 35 30 23 18 16
46 44 44 42 41 41 41 40 39 38 38 38 38 40 41 41 42 41 42 41 41 41 41 42 42 44 45 43 44 47 48 57 61 51 43 40 37 32 28 25 21 16 12
39 38 39 39 39 40 40 40 39 39 39 39 39 41 39 40 39 39 40 39 39 40 39 38 39 39 40 40 39 43 43 50 53 48 42 35 32 28 25 22 18 15 12
32 34 37 38 39 38 38 38 37 35 35 35 36 37 38 38 38 39 39 38 38 36 36 36 35 35 35 36 35 38 40 43 46 43 41 37 32 29 26 23 21 18 16
Wind_Direction_850mb
325 332 341 342 344 341 337 336 336 336 332 331 332 331 330 328 325 323 320 317 313 310 307 303 300 298 293 290 288 287 287 288 287 289 292 292 292 295 296 292 285 276 271
276 303 317 322 323 325 325 328 329 327 327 327 327 326 324 323 321 319 316 314 311 310 308 305 302 300 295 292 288 286 284 282 284 287 288 290 289 288 291 293 292 287 279
272 286 298 308 314 318 320 320 321 320 321 322 321 321 320 319 318 316 314 313 312 310 308 306 305 303 299 297 293 288 285 284 282 285 287 285 287 289 288 287 288 288 287
268 279 292 301 306 309 313 315 316 317 319 319 319 319 319 317 316 315 312 310 308 306 304 302 301 300 300 298 294 292 288 285 284 284 284 288 286 286 288 288 288 287 286
275 280 284 291 300 307 310 312 312 314 315 316 316 316 316 316 316 314 312 310 308 305 302 299 296 293 289 287 287 287 288 287 287 288 286 289 287 287 284 288 288 291 287
268 270 271 279 297 303 306 308 308 312 314 316 318 318 318 318 317 315 313 311 308 306 305 303 301 297 293 288 281 277 275 279 280 281 281 280 281 283 285 286 284 285 285
269 267 268 276 288 295 302 303 307 311 312 315 316 318 318 319 319 318 316 312 310 310 308 307 305 302 300 295 289 283 274 267 267 272 274 273 278 276 280 275 277 279 277
270 265 268 275 282 290 296 298 304 307 311 315 317 318 317 320 320 319 316 313 311 311 310 308 306 305 305 302 301 296 292 289 287 281 277 282 279 280 277 271 271 271 269
264 261 263 270 279 288 290 296 304 309 313 316 317 317 318 321 321 319 317 316 313 313 313 313 315 312 305 299 298 298 295 292 289 282 277 277 276 275 273 274 271 271 268
259 258 263 271 280 285 291 299 306 310 312 315 316 318 320 322 322 320 317 316 314 315 321 320 316 306 303 297 293 293 294 296 299 301 298 297 296 292 283 267 266 268 263
257 260 267 277 283 288 295 299 305 309 313 316 316 317 318 323 324 323 322 314 315 318 312 308 310 310 300 296 292 290 289 297 296 293 293 293 290 287 287 280 285 264 266
260 266 274 280 287 293 292 299 303 309 312 313 314 315 320 324 327 329 325 315 313 310 310 311 310 308 301 296 293 291 290 289 287 284 284 285 286 289 292 292 287 265 256
266 271 277 284 289 289 294 298 302 309 311 311 313 316 321 327 333 335 335 330 318 313 311 310 306 303 300 298 298 296 292 286 287 288 287 286 288 291 293 290 286 281 275
271 276 282 288 286 287 292 298 303 308 309 310 313 321 326 329 329 335 337 327 319 318 323 316 305 298 294 298 296 295 291 288 284 284 282 285 287 286 285 283 279 279 276
274 279 284 285 285 288 294 300 303 307 309 312 318 318 316 318 329 327 321 324 322 315 307 305 314 317 316 315 314 317 312 305 298 295 292 292 289 288 284 283 278 278 272
277 284 285 286 288 292 295 298 300 306 307 307 308 304 308 311 320 322 324 326 319 323 323 321 321 322 323 324 323 323 324 323 319 313 305 289 281 281 284 286 282 274 267
281 283 284 287 290 293 297 300 305 304 301 302 304 308 313 316 321 325 325 330 336 336 336 338 337 336 334 332 331 329 327 329 326 324 317 306 290 289 289 289 290 284 278
280 279 279 282 288 291 295 298 301 305 306 304 303 313 317 319 327 327 333 333 332 346 353 354 350 347 344 339 336 334 333 334 333 332 325 308 297 287 288 293 300 308 273
278 279 282 285 287 289 292 294 297 298 300 304 305 303 312 313 325 335 333 336 342 347 351 354 354 353 351 347 344 341 339 340 339 336 337 323 307 295 288 296 306 310 312
281 282 281 283 285 287 287 289 291 292 295 300 307 308 316 316 336 335 338 342 344 346 347 348 351 351 350 351 351 349 345 344 340 338 336 333 332 315 302 297 295 297 297
280 279 281 281 284 282 282 283 284 287 292 297 304 307 313 317 325 328 333 339 341 342 342 344 347 348 348 350 351 351 353 349 343 339 337 334 331 322 314 309 303 304 300
279 280 281 281 278 278 277 278 282 286 291 295 299 303 304 309 313 316 323 327 332 334 334 336 340 345 348 351 350 351 355 354 347 341 337 335 334 332 327 319 310 304 301
282 282 279 276 274 272 272 274 277 283 287 292 297 301 301 305 308 311 315 319 323 326 326 329 332 337 343 348 352 352 355 356 348 340 337 338 339 339 339 338 337 337 331
286 282 278 274 272 273 273 273 274 278 283 287 291 296 299 304 306 310 313 316 320 323 325 326 329 333 336 341 348 352 353 360 349 348 344 343 345 347 350 354 359 0 352
284 280 278 278 276 274 273 274 276 278 282 286 291 294 299 303 307 310 311 316 320 324 327 329 330 332 337 340 341 348 351 3 354 357 359 358 359 2 6 11 19 27 36
284 282 282 280 279 277 276 276 277 279 283 286 289 293 299 303 309 311 313 316 319 323 327 331 334 336 337 340 342 349 355 7 354 6 9 14 18 24 27 32 37 46 51